EHI
0 1 2 3 3 6 8 10 9 8 8 6 3 1 1 0 0 0 0 0 0 0 0 0 0 0 0 0 0 0 0 0 0 0 0 0 0 0 0 0 0 0 0
0 1 2 2 3 4 6 7 8 9 8 7 4 3 2 1 0 0 0 0 0 0 0 0 0 0 0 0 0 0 0 0 0 0 0 0 0 0 0 0 0 0 0
0 1 1 1 2 3 4 6 9 10 9 7 6 5 4 3 1 1 0 0 0 0 0 0 0 0 0 0 0 0 0 0 0 0 0 0 0 0 0 0 0 0 0
0 0 0 0 1 2 4 7 10 10 9 8 7 7 7 5 4 3 1 0 0 0 0 0 0 0 0 0 0 0 0 0 0 0 0 0 0 0 0 0 0 0 0
0 0 0 0 0 1 2 5 8 9 9 9 10 10 10 9 8 5 3 1 1 1 1 0 0 0 0 0 0 0 0 0 0 0 0 0 0 0 0 0 0 0 0
0 0 0 0 0 0 1 2 5 6 7 9 11 12 12 11 9 6 4 3 3 2 1 0 0 0 0 0 0 0 0 0 0 0 0 0 0 0 0 0 0 0 0
0 0 0 0 0 0 1 2 3 3 4 7 10 12 13 11 9 6 4 4 4 2 1 0 0 0 0 0 0 0 0 0 0 0 0 0 0 0 0 0 0 0 0
0 0 0 0 0 0 1 1 1 1 2 5 9 10 11 10 8 5 4 4 4 2 0 0 0 0 0 0 0 0 0 0 0 0 0 0 0 0 0 0 0 0 0
0 0 0 0 0 0 0 0 0 0 1 3 6 8 8 8 5 3 3 3 2 1 0 0 0 0 0 0 0 0 0 0 0 0 0 0 0 0 0 0 0 0 0
0 0 0 0 0 0 0 0 0 0 0 1 4 5 5 4 3 2 1 1 0 0 0 0 0 0 0 0 0 0 0 0 0 0 0 0 0 0 0 0 0 0 0
0 0 0 0 0 0 0 0 0 0 0 1 3 4 3 3 1 1 0 0 0 0 0 0 0 0 0 0 0 0 0 0 0 0 0 0 0 0 0 0 0 0 0
0 0 0 0 0 0 0 0 0 0 0 1 2 2 2 2 1 0 0 0 0 0 0 0 0 0 0 0 0 0 0 0 0 0 0 0 0 0 0 0 0 0 0
0 0 0 0 0 0 0 0 0 0 0 0 1 1 1 1 0 0 0 0 0 0 0 0 0 0 0 0 0 0 0 0 0 0 0 0 0 0 0 0 0 0 0
0 0 0 0 0 0 0 0 0 0 0 0 0 0 0 0 0 0 0 0 0 0 0 0 0 0 0 0 0 0 0 0 0 0 0 0 0 0 0 0 0 0 0
0 0 0 0 0 0 0 0 0 0 0 0 0 0 0 0 0 0 0 0 0 0 0 0 0 0 0 0 0 0 0 0 0 0 0 0 0 0 0 0 0 0 0
0 0 0 0 0 0 0 0 0 0 0 0 0 0 0 0 0 0 0 0 0 0 0 0 0 0 0 0 0 0 0 0 0 0 0 0 0 0 0 0 0 0 0
0 0 0 0 0 0 0 0 0 0 0 0 0 0 0 0 0 0 0 0 0 0 0 0 0 0 0 0 0 0 0 0 0 0 0 0 0 0 0 0 0 0 0
0 0 0 0 0 0 0 0 0 0 0 0 0 0 0 0 0 0 0 0 0 0 0 0 0 0 0 0 0 0 0 0 0 0 0 0 0 0 0 0 0 0 0
0 0 0 0 0 0 0 0 0 0 0 0 0 0 0 0 0 0 0 0 0 0 0 0 0 0 0 0 0 0 0 0 0 0 0 0 0 0 0 0 0 0 0
0 0 0 0 0 0 0 0 0 0 0 0 0 0 0 0 0 0 0 0 0 0 0 0 0 0 0 0 0 0 0 0 0 0 0 0 0 0 0 0 0 0 0
0 0 0 0 0 0 0 0 0 0 0 0 0 0 0 0 0 0 0 0 0 0 0 0 0 0 0 0 0 0 0 0 0 0 0 0 0 0 0 0 0 0 0
0 0 0 0 0 0 0 0 0 0 0 0 0 0 0 0 0 0 0 0 0 0 0 0 0 0 0 0 0 0 0 0 0 0 0 0 0 0 0 0 0 0 0
0 0 0 0 0 0 0 0 0 0 0 0 0 0 0 0 0 0 0 0 0 0 0 0 0 0 0 0 0 0 0 0 0 0 0 0 0 0 0 0 0 0 0
0 0 0 0 0 0 0 0 0 0 0 0 0 0 0 0 0 0 0 0 0 0 0 0 0 0 0 0 0 0 0 0 0 0 0 0 0 0 0 0 0 0 0
0 0 0 0 0 0 0 0 0 0 0 0 0 0 0 0 0 0 0 0 0 0 0 0 0 0 0 0 0 0 0 0 0 0 0 0 0 0 0 0 0 0 0
0 0 0 0 0 0 0 0 0 0 0 0 0 0 0 0 0 0 0 0 0 0 0 0 0 0 0 0 0 0 0 0 0 0 0 0 0 0 0 0 0 0 0
Wind_Speed
6 5 6 6 6 7 8 9 10 10 9 6 6 5 5 4 4 4 6 7 7 7 6 5 5 4 4 4 4 3 3 2 1 0 2 3 4 4 4 3 3 3 3
5 5 5 5 7 8 8 9 10 10 9 7 6 4 5 3 4 3 4 6 7 7 6 6 5 5 4 4 4 3 2 2 2 2 1 3 4 3 2 2 2 2 1
8 7 7 7 6 8 9 9 10 9 9 8 5 4 3 2 2 4 4 4 6 6 6 6 5 5 5 5 5 5 5 3 3 3 3 3 4 3 2 1 1 1 1
9 8 7 6 6 7 7 8 8 8 8 8 8 9 7 6 6 5 4 4 5 5 5 6 5 5 4 4 4 4 3 4 3 3 3 3 3 2 2 2 1 1 0
8 8 7 6 5 5 5 5 6 7 7 8 9 8 6 5 4 4 5 5 4 5 5 5 5 5 4 4 4 4 4 4 4 3 2 3 3 4 3 4 2 1 1
6 5 4 4 4 3 4 5 5 5 5 7 8 8 8 7 6 5 5 4 3 3 4 4 4 4 4 4 4 4 4 4 4 3 3 3 3 3 4 5 3 3 2
4 4 4 4 4 4 4 4 6 5 5 6 6 7 7 8 8 7 6 5 4 3 4 4 3 3 3 3 3 3 4 4 4 4 3 3 3 2 2 3 3 3 2
3 3 3 4 4 5 5 5 5 4 4 5 6 5 6 5 4 5 5 5 4 3 3 4 3 3 3 3 3 3 3 3 3 3 3 3 3 2 2 3 3 3 2
0 1 1 2 3 4 4 5 6 5 4 4 4 4 4 4 4 4 4 3 3 3 4 4 3 3 2 2 2 2 2 2 2 2 3 2 2 2 2 2 3 3 4
1 0 0 1 1 1 2 2 3 4 3 3 3 3 4 4 4 5 5 4 4 3 4 3 3 2 2 2 2 1 1 2 1 1 1 1 1 1 1 2 2 3 3
1 1 1 0 1 1 2 2 3 3 3 3 3 4 4 4 5 4 5 5 4 4 4 4 3 3 2 2 2 1 1 2 1 1 1 1 0 0 1 1 1 2 2
1 1 0 0 1 1 1 2 2 3 3 3 4 4 4 5 5 5 4 5 5 4 4 4 3 3 2 2 2 2 1 2 2 1 1 1 0 0 0 0 1 1 1
2 1 1 0 1 1 1 2 2 3 3 4 5 5 5 5 5 5 5 5 5 4 4 4 3 2 2 2 2 2 2 2 1 1 1 1 1 0 0 0 1 1 1
2 1 1 1 1 2 2 2 2 3 4 5 5 5 5 5 5 5 5 5 4 4 3 3 3 3 2 2 2 2 2 2 1 1 1 1 1 1 1 0 0 0 0
2 1 1 2 1 1 2 2 3 3 4 5 5 5 5 5 5 5 4 4 4 4 4 3 3 2 2 2 2 2 2 2 2 2 1 1 1 2 1 1 1 0 0
2 2 2 1 2 2 2 2 3 3 4 5 5 5 5 5 5 5 5 4 4 3 3 3 3 2 1 3 4 3 3 3 3 2 1 1 1 2 2 2 2 2 2
3 2 2 2 3 3 3 3 3 3 4 5 5 5 6 5 5 5 5 4 4 3 3 3 3 2 1 3 3 4 3 2 2 2 2 1 1 2 2 3 4 4 3
3 3 3 3 3 2 2 2 2 3 4 4 5 5 6 5 5 5 5 4 3 3 3 3 3 2 2 3 4 5 3 2 2 2 2 2 1 2 2 2 2 2 2
4 3 3 2 3 2 1 2 2 2 3 4 5 5 6 6 6 5 5 4 3 3 3 3 3 3 3 4 5 5 3 2 2 2 2 3 2 4 4 3 2 1 1
4 3 3 3 2 3 1 2 2 2 3 4 4 4 5 6 6 5 4 3 3 3 3 3 3 3 3 5 6 6 3 3 2 1 2 4 4 5 5 3 3 2 1
5 3 3 3 3 3 1 1 1 2 2 2 2 3 4 5 5 4 3 4 3 3 3 3 2 3 4 6 7 8 3 4 3 2 2 2 6 6 6 4 3 4 3
5 4 3 3 3 3 1 0 1 1 0 1 2 2 3 3 4 4 4 4 4 4 3 3 2 2 3 5 7 9 8 7 4 3 3 3 6 6 6 4 5 5 3
5 4 3 3 3 3 2 1 2 1 0 1 1 2 2 3 4 5 5 4 4 4 3 3 3 3 2 4 8 9 9 9 5 4 6 7 7 6 4 5 6 4 2
5 3 3 3 3 2 2 1 1 0 1 1 1 1 2 2 3 3 4 4 4 4 4 4 4 3 3 3 3 3 4 6 5 3 5 7 7 4 4 4 3 2 3
5 3 3 3 3 2 2 1 1 0 1 1 1 1 1 2 2 3 4 4 4 5 6 5 4 5 5 7 9 6 4 4 4 3 2 2 2 2 2 2 2 2 2
5 4 4 3 3 2 2 1 1 0 1 1 1 1 1 2 2 2 2 5 6 9 10 9 7 6 8 9 11 12 12 11 11 6 3 4 4 4 4 4 4 3 4
Wind_Direction
250 229 211 190 176 173 175 184 178 177 170 165 165 166 176 177 178 179 177 176 176 177 176 176 177 175 180 188 185 179 194 208 172 185 299 293 270 258 254 245 237 234 225
262 243 217 193 183 180 178 183 184 180 174 173 172 167 159 170 176 173 179 180 178 177 176 175 180 179 176 182 185 175 176 200 172 167 220 305 317 303 272 252 228 229 213
234 235 216 199 188 186 183 184 186 184 178 170 153 138 122 118 158 177 186 190 180 175 171 175 177 183 182 190 192 184 183 201 210 188 180 205 249 295 310 308 264 228 206
226 221 213 200 192 194 186 179 179 181 178 169 168 168 171 180 191 186 183 182 178 175 175 175 179 185 189 193 196 193 193 189 210 219 219 212 200 224 288 308 326 343 264
222 213 207 197 191 185 179 178 172 176 176 174 177 178 179 181 170 165 171 178 179 179 178 176 178 184 189 195 192 188 197 199 205 209 213 228 230 223 235 264 270 297 272
219 213 204 183 185 178 169 163 161 175 178 177 177 178 179 171 162 171 179 181 176 175 179 178 183 189 191 195 196 195 199 207 210 213 211 211 218 218 221 243 244 243 235
201 197 195 186 185 179 175 165 160 173 180 174 179 185 181 176 178 180 184 177 177 182 188 177 181 186 190 188 186 190 201 205 209 214 220 224 230 217 214 237 250 243 232
208 192 193 192 193 187 178 171 170 175 179 178 180 181 178 175 180 180 174 180 179 175 168 160 163 172 179 184 185 191 202 197 207 216 217 224 230 221 216 221 226 250 241
280 198 185 195 194 189 185 176 171 170 174 176 169 165 168 165 165 161 159 160 151 145 140 141 146 155 165 174 170 187 196 185 201 212 213 224 229 224 230 229 219 231 250
31 40 134 176 187 180 152 133 154 163 165 161 163 158 156 153 149 142 144 140 137 131 132 131 134 135 127 121 136 165 169 174 200 198 184 214 234 233 238 233 236 231 239
354 326 312 150 141 122 129 139 148 144 140 142 137 130 130 128 125 128 133 131 126 129 132 137 133 133 130 128 133 148 148 163 177 164 165 215 214 226 265 249 232 238 234
350 332 298 200 130 143 148 156 158 154 156 142 129 127 125 122 122 123 122 122 124 126 126 122 119 124 132 138 147 155 148 163 177 174 159 213 170 254 299 276 249 246 240
350 358 350 214 199 206 186 174 170 164 152 135 131 129 130 130 131 131 128 125 127 123 116 116 122 133 139 140 143 146 145 147 155 159 162 180 166 232 314 279 263 267 265
328 342 323 283 247 225 195 180 180 166 152 141 139 142 146 144 139 134 131 130 129 126 124 123 132 137 131 128 127 126 132 128 118 115 128 135 156 190 195 219 279 279 239
332 314 304 271 254 245 213 185 178 173 157 148 150 157 150 141 135 134 133 131 132 136 135 129 126 127 134 145 142 143 145 141 129 108 105 113 138 166 165 157 188 163 168
317 307 314 281 251 240 222 196 189 186 163 159 163 154 144 141 143 143 139 137 136 134 133 139 145 149 157 164 164 155 151 152 154 154 142 124 102 97 85 91 105 135 166
325 316 302 280 257 246 225 209 201 176 164 166 163 157 154 153 155 149 144 149 148 141 139 143 144 149 171 178 175 164 144 152 166 172 171 169 137 90 73 66 53 41 48
321 316 311 314 295 273 243 207 177 165 169 173 170 166 162 162 158 153 158 159 153 155 160 163 159 158 191 190 181 163 139 145 168 178 178 174 182 176 145 117 80 43 20
315 309 306 308 313 298 251 169 163 167 173 182 183 178 171 169 167 170 173 167 160 164 168 167 168 177 195 196 188 162 141 158 179 188 186 182 195 206 181 149 140 88 352
331 334 339 344 335 322 327 140 169 179 204 203 193 179 173 174 178 180 173 164 161 170 168 173 179 187 197 202 199 182 161 174 187 197 212 209 207 211 196 172 171 193 226
335 342 351 349 336 334 14 137 170 222 231 198 170 167 171 175 175 168 163 160 159 161 170 180 194 199 206 212 213 205 180 185 190 199 212 229 223 219 213 199 193 214 199
337 340 345 340 341 350 9 138 251 272 318 138 153 165 170 170 163 161 162 162 164 171 182 189 211 221 218 218 223 221 212 198 190 204 208 222 227 227 228 221 216 222 190
327 330 327 330 342 353 1 301 301 344 80 136 164 172 168 169 166 168 171 171 175 184 193 196 212 223 217 226 230 229 223 215 202 204 212 220 226 231 236 237 232 220 175
316 319 320 317 320 331 341 314 315 8 106 150 184 176 171 176 175 175 179 185 189 194 198 203 213 218 217 220 223 223 225 221 216 208 222 228 230 228 229 242 243 206 191
307 305 298 293 297 313 324 337 337 100 134 180 193 187 185 185 191 196 200 201 208 203 201 207 204 205 221 223 216 206 206 198 199 178 178 187 199 218 225 227 227 217 216
302 301 297 291 296 303 312 327 329 178 179 225 225 215 207 201 197 202 228 227 224 228 227 223 216 221 228 232 228 227 225 221 209 196 198 210 214 221 224 227 228 219 219